Miscellaneous Local Product
Issued by NWS Hastings, NE

Home | Current Version | Previous Version | Graphics & Text | Print | Product List | Glossary On
Versions: 1 2 3 4 5 6 7 8 9 10 11 12 13 14 15 16 17 18 19 20 21 22 23 24 25 26 27 28 29 30 31 32 33 34 35 36 37 38 39 40 41 42 43 44 45 46 47 48 49 50
000
AXUS43 KGID 020002
MISGRI

GID CWA HOURLY WEATHER ROUNDUP
NATIONAL WEATHER SERVICE HASTINGS NE
700 PM CDT WED JUL 01 2015

NOTE: "FAIR" INDICATES FEW OR NO CLOUDS BELOW 12,000 FEET WITH NO
SIGNIFICANT WEATHER AND/OR OBSTRUCTIONS TO VISIBILITY.

...SOUTH CENTRAL NEBRASKA...

CITY           SKY/WX    TMP DP  RH WIND       PRES   REMARKS
GRAND ISLAND   PTSUNNY   84  68  58 NE8       29.88S
HASTINGS       SUNNY     85  69  58 NE7       29.88S
KEARNEY        SUNNY     84  66  54 E7        29.89S
ORD            SUNNY     85  67  54 E7        29.86F
YORK           MOSUNNY   82  68  61 NE3       29.87S
AURORA         MOSUNNY   84  67  56 N6        29.88R
LEXINGTON      SUNNY     89  66  46 E7        29.90S HX  91
HOLDREGE       SUNNY     85  64  50 E6        29.90S
HEBRON         MOSUNNY   86  67  52 NE8       29.83F

...NEBRASKA PANHANDLE...

CITY           SKY/WX    TMP DP  RH WIND       PRES   REMARKS
CHADRON        SUNNY     84  60  44 NE12      29.97S
ALLIANCE       SUNNY     86  58  38 E12       29.99F
SCOTTSBLUFF    PTSUNNY   89  52  28 SE13      29.98F
SIDNEY         MOSUNNY   89  53  29 E8        30.02F

...WESTERN AND NORTH CENTRAL NEBRASKA...

CITY           SKY/WX    TMP DP  RH WIND       PRES   REMARKS
VALENTINE      SUNNY     83  66  56 N10       29.93S
AINSWORTH      SUNNY     84  64  50 N12G20    29.92S
ONEILL         MOSUNNY   78  68  71 NE5       29.90S
BROKEN BOW     SUNNY     86  69  56 NE5       29.90S HX  90
IMPERIAL       SUNNY     93  54  26 NE12      29.94S HX  91
NORTH PLATTE   MOSUNNY   90  55  30 N14       29.92R
MCCOOK         SUNNY     92  64  39 E7        29.89S HX  93

...EASTERN NEBRASKA...

CITY           SKY/WX    TMP DP  RH WIND       PRES   REMARKS
NORFOLK        MOSUNNY   79  67  66 E10       29.89R
SO SIOUX CITY  PTSUNNY   75  65  70 E12       29.90F
TEKAMAH        CLOUDY    79  68  69 NE12      29.88R
COLUMBUS       SUNNY    N/A N/A N/A MISG        N/A
ALBION         SUNNY     82  67  60 E8        29.89S
OMAHA EPPLEY   MOSUNNY   80  68  66 NE12      29.87R
OFFUTT AFB     MOSUNNY   80  69  68 E8        29.85F
MILLARD        CLOUDY    82  69  65 E8        29.86R
LINCOLN        PTSUNNY   83  71  67 NE15      29.85R
NEBRASKA CITY  PTSUNNY   81  67  62 E10       29.84S
BEATRICE       PTSUNNY   85  70  61 NE6       29.84S HX  90
FALLS CITY     SUNNY     83  72  69 E7        29.82S

...NORTHERN KANSAS...

CITY           SKY/WX    TMP DP  RH WIND       PRES   REMARKS
GOODLAND       SUNNY     92  49  22 NE8       29.96F
HILL CITY      SUNNY     97  52  21 NE15      29.88S HX  94
NORTON         CLEAR     91  55  29 NE9       29.88S
PHILLIPSBURG   SUNNY     97  59  28 N12G17    29.86S HX  96
SMITH CENTER   SUNNY     90  64  43 N9        29.86R HX  91
HAYS           SUNNY     97  55  24 NE10G21   29.85R HX  95
RUSSELL        SUNNY     96  58  27 N10       29.82R HX  95
CONCORDIA      SUNNY     90  69  50 NE7       29.81S HX  94
SALINA         SUNNY     96  60  30 NE8       29.78S HX  96
TOPEKA         SUNNY     92  71  50 N5        29.77F HX  98



USA.gov is the U.S. government's official web portal to all federal, state and local government web resources and services.